This demonstration page uses our WeatherBlox Daily Observations layout. Learn more.

Hourly Observations for August 15, 2016

Temp ( °F °C ) Dew Point ( °F °C ) Humidity (%) Winds ( mph kmh ) Pressure ( in mb ) Visibility ( mi km ) Precip ( " mm )
12:15 am 00:15 Clear 69 20.5 60 15.8 75 75 SSE 9 15 29.94 1014 10 16.09344 0 0
12:35 am 00:35 Clear 69 20.6 60 15.4 72 72 SSE 12 19 29.94 1014 10 16.09344 0 0
12:55 am 00:55 Clear 69 20.6 59 15 70 70 SSE 12 19 29.94 1014 10 16.09344 0 0
1:15 am 01:15 Clear 69 20.4 58 14.7 70 70 SSE 9 15 29.94 1014 10 16.09344 0 0
1:35 am 01:35 Clear 68 20.1 58 14.6 71 71 SSE 9 15 29.97 1015 10 16.09344 0 0
1:55 am 01:55 Clear 68 19.9 58 14.5 71 71 SSE 8 13 29.97 1015 10 16.09344 0 0
2:15 am 02:15 Clear 67 19.5 58 14.5 73 73 SE 7 11 29.97 1015 10 16.09344 0 0
2:35 am 02:35 Clear 66 19 58 14.5 75 75 ESE 5 7 29.97 1015 10 16.09344 0 0
2:55 am 02:55 Clear 62 16.7 58 14.6 88 88 E 6 9 30 1016 10 16.09344 0 0
3:15 am 03:15 Clear 64 17.5 59 14.8 84 84 SE 5 7 29.97 1015 10 16.09344 0 0
3:35 am 03:35 Clear 64 18 59 15 83 83 SE 7 11 29.97 1015 10 16.09344 0 0
3:55 am 03:55 Clear 64 18 59 15.2 84 84 SE 6 9 29.97 1015 10 16.09344 0 0
4:15 am 04:15 Clear 63 17.1 59 15.2 89 89 ESE 6 9 29.97 1015 10 16.09344 0 0
4:35 am 04:35 Clear 62 16.9 59 15.1 89 89 SE 7 11 29.97 1015 10 16.09344 0 0
4:55 am 04:55 Clear 63 17.1 60 15.5 90 90 SE 6 9 29.97 1015 10 16.09344 0 0
5:15 am 05:15 Clear 63 17.3 60 15.6 90 90 ESE 7 11 29.97 1015 10 16.09344 0 0
5:35 am 05:35 Clear 62 16.9 59 15 89 89 E 6 9 29.97 1015 10 16.09344 0 0
5:55 am 05:55 Clear 60 15.6 58 14.5 93 93 E 6 9 30 1016 10 16.09344 0 0
6:15 am 06:15 Clear 61 16.1 58 14.7 91 91 ESE 6 9 30 1016 10 16.09344 0 0
6:35 am 06:35 Clear 61 16.3 58 14.6 90 90 ESE 6 9 30 1016 10 16.09344 0 0
6:55 am 06:55 Sunny 62 16.5 58 14.7 89 89 SE 6 9 30 1016 10 16.09344 0 0
7:15 am 07:15 Sunny 61 16.1 58 14.5 90 90 SE 5 7 30 1016 10 16.09344 0 0
7:35 am 07:35 Sunny 62 16.8 59 15 89 89 ESE 5 7 29.97 1015 10 16.09344 0 0
7:55 am 07:55 Sunny 65 18.2 60 15.6 85 85 SSE 8 13 29.97 1015 10 16.09344 0 0
8:15 am 08:15 Sunny 67 19.4 61 16.3 82 82 SSE 5 7 29.97 1015 10 16.09344 0 0
8:35 am 08:35 Sunny 69 20.5 62 16.6 78 78 SSE 7 11 29.94 1014 10 16.09344 0 0
8:55 am 08:55 Sunny 71 21.6 63 17 75 75 SSE 8 13 29.94 1014 10 16.09344 0 0
9:15 am 09:15 Sunny 72 22.3 63 17 72 72 SSE 10 17 29.94 1014 10 16.09344 0 0
9:35 am 09:35 Sunny 73 23 62 16.6 67 67 S 16 26 29.94 1014 10 16.09344 0 0
9:55 am 09:55 Sunny 75 23.7 61 16.1 63 63 S 17 28 29.91 1013 10 16.09344 0 0
10:15 am 10:15 Sunny 76 24.3 61 16 60 60 S 13 20 29.91 1013 10 16.09344 0 0
10:35 am 10:35 Sunny 76 24.6 61 16.2 60 60 S 14 22 29.91 1013 10 16.09344 0 0
10:55 am 10:55 Sunny 77 25.2 61 16 57 57 S 14 22 29.91 1013 10 16.09344 0 0
11:15 am 11:15 Sunny 78 25.5 62 16.7 58 58 S 13 20 29.91 1013 10 16.09344 0 0
11:35 am 11:35 Sunny 79 26 63 17.2 58 58 S 12 19 29.91 1013 10 16.09344 0 0
11:55 am 11:55 Sunny 80 26.4 63 17 56 56 S 14 22 29.91 1013 10 16.09344 0 0
12:15 pm 12:15 Sunny 81 27 63 17.1 55 55 S 14 22 29.91 1013 10 16.09344 0 0
12:35 pm 12:35 Sunny 82 27.7 63 17.4 53 53 S 14 22 29.85 1011 10 16.09344 0 0
12:55 pm 12:55 Sunny 82 28 63 17.2 52 52 S 13 20 29.85 1011 10 16.09344 0 0
1:15 pm 13:15 Sunny 83 28.5 63 17.1 50 50 S 13 20 29.85 1011 10 16.09344 0 0
1:35 pm 13:35 Sunny 84 29 64 17.5 50 50 SSE 12 19 29.85 1011 10 16.09344 0 0
1:55 pm 13:55 Sunny 85 29.4 64 17.6 49 49 S 10 17 29.85 1011 10 16.09344 0 0
2:15 pm 14:15 Sunny 86 29.8 64 18 49 49 SE 12 19 29.85 1011 10 16.09344 0 0
2:35 pm 14:35 Sunny 86 30 63 17.3 46 46 SSE 13 20 29.85 1011 10 16.09344 0 0
2:55 pm 14:55 Sunny 86 30.2 62 16.7 44 44 SSE 13 20 29.85 1011 10 16.09344 0 0
3:15 pm 15:15 Sunny 87 30.5 63 17 44 44 SE 14 22 29.85 1011 10 16.09344 0 0
3:35 pm 15:35 Sunny 87 30.6 62 16.4 42 42 SSE 13 20 29.83 1010 10 16.09344 0 0
3:55 pm 15:55 Sunny 87 30.8 61 16.2 41 41 SSE 13 20 29.83 1010 10 16.09344 0 0
4:15 pm 16:15 Sunny 88 30.9 60 15.5 39 39 SSE 15 24 29.8 1009 10 16.09344 0 0
4:35 pm 16:35 Sunny 88 31 60 15.7 40 40 SE 14 22 29.8 1009 10 16.09344 0 0
4:55 pm 16:55 Sunny 88 31.2 59 14.9 37 37 SSE 15 24 29.8 1009 10 16.09344 0 0
5:15 pm 17:15 Sunny 88 31.1 58 14.7 37 37 SSE 12 19 29.8 1009 10 16.09344 0 0
5:35 pm 17:35 Sunny 88 31 61 16.2 41 41 SE 12 19 29.8 1009 10 16.09344 0 0
5:55 pm 17:55 Sunny 86 30 59 14.8 40 40 SSE 12 19 29.83 1010 10 16.09344 0 0
6:15 pm 18:15 Sunny 86 29.8 61 16 43 43 SE 10 17 29.83 1010 10 16.09344 0 0
6:35 pm 18:35 Sunny 85 29.5 60 15.7 43 43 SE 12 19 29.83 1010 10 16.09344 0 0
6:55 pm 18:55 Sunny 85 29.2 60 15.7 44 44 SE 9 15 29.83 1010 10 16.09344 0 0
7:15 pm 19:15 Sunny 84 28.8 61 16.1 46 46 SE 13 20 29.83 1010 10 16.09344 0 0
7:35 pm 19:35 Sunny 82 28 62 16.5 50 50 SE 9 15 29.83 1010 10 16.09344 0 0
7:55 pm 19:55 Sunny 80 26.9 63 17.1 55 55 SE 9 15 29.83 1010 10 16.09344 0 0
8:15 pm 20:15 Sunny 79 26.3 63 17 57 57 SE 9 15 29.85 1011 10 16.09344 0 0
8:35 pm 20:35 Sunny 78 25.4 63 17.3 61 61 ESE 9 15 29.88 1012 10 16.09344 0 0
8:55 pm 20:55 Clear 76 24.7 63 17.3 64 64 SE 9 15 29.88 1012 10 16.09344 0 0
9:15 pm 21:15 Clear 75 24.1 63 17.3 66 66 SE 10 17 29.88 1012 10 16.09344 0 0
9:35 pm 21:35 Clear 74 23.4 63 17.2 68 68 SE 9 15 29.88 1012 10 16.09344 0 0
9:55 pm 21:55 Clear 74 23.1 63 17.1 69 69 SE 9 15 29.91 1013 10 16.09344 0 0
10:15 pm 22:15 Clear 72 22.1 63 17.2 74 74 SE 8 13 29.91 1013 10 16.09344 0 0
10:35 pm 22:35 Clear 71 21.8 63 17.1 75 75 SE 8 13 29.91 1013 10 16.09344 0 0
10:55 pm 22:55 Clear 71 21.8 63 17.2 75 75 SE 10 17 29.91 1013 10 16.09344 0 0
11:15 pm 23:15 Clear 72 22.2 63 17.3 74 74 SE 9 15 29.94 1014 10 16.09344 0 0
11:35 pm 23:35 Clear with Nearby Thunderstorms 71 21.7 63 17.3 76 76 SE 8 13 29.94 1014 10 16.09344 0 0
11:55 pm 23:55 Clear with Nearby Thunderstorms 71 21.6 64 17.5 78 78 SE 7 11 29.94 1014 10 16.09344 0 0

Powered by AerisWeather